Location: Northcutt
(34.7304°N, 84.4305°W)
Time: 09:38:20
(UTC+00:00)

S-56A Canister/Altair - Pass Details

Date: 04 October 2022
Orbit: 638 x 2494 km, 38.9° (Epoch: 08 December)

Event Time Altitude Azimuth Distance (km) Brightness Sun altitude
Rises 08:42:39 0° 273° (W) 5,461 - -35.5°
Reaches altitude 10° 08:46:45 10° 276° (W) 4,189 - -34.7°
Exits shadow 08:56:09 61° 321° (NW) 1,537 8.8 -32.9°
Maximum altitude 08:57:14 66° 358° (N) 1,426 8.7 -32.7°
Drops below altitude 10° 09:04:01 10° 81° (E) 2,779 11.2 -31.4°
Sets 09:06:14 0° 84° (E) 3,547 12.0 -31.0°
